Time,TemperatureF,DewpointF,PressureIn,WindDirection,WindDirectionDegrees,WindSpeedMPH,WindSpeedGustMPH,Humidity,HourlyPrecipIn,Conditions,Clouds,dailyrainin,SoftwareType,DateUTC
2013-08-08 00:01:00,70.0,69.0,30.06,NNW,332,0.0,1.0,97,0.00,,,0.00,,2013-08-08 04:01:00,
2013-08-08 00:22:00,70.0,69.0,30.06,NNW,332,0.0,0.0,97,0.00,,,0.00,,2013-08-08 04:22:00,
2013-08-08 00:33:00,70.0,69.0,30.06,NNW,332,0.0,0.0,97,0.00,,,0.00,,2013-08-08 04:33:00,
2013-08-08 00:44:00,70.0,69.0,30.06,NNW,332,0.0,0.0,97,0.00,,,0.00,,2013-08-08 04:44:00,
2013-08-08 00:53:00,70.0,69.0,30.06,NNW,332,0.0,0.0,97,0.00,,,0.00,,2013-08-08 04:53:00,
2013-08-08 01:02:00,70.0,69.0,30.06,NNW,332,0.0,0.0,97,0.00,,,0.00,,2013-08-08 05:02:00,
2013-08-08 01:22:00,70.0,69.0,30.05,NNW,332,0.0,0.0,97,0.00,,,0.00,,2013-08-08 05:22:00,
2013-08-08 01:33:00,70.0,69.0,30.05,NNW,332,0.0,0.0,97,0.00,,,0.00,,2013-08-08 05:33:00,
2013-08-08 01:43:00,70.0,69.0,30.05,NNW,332,0.0,0.0,97,0.00,,,0.00,,2013-08-08 05:43:00,
2013-08-08 01:52:00,70.0,69.0,30.05,NNW,332,0.0,0.0,97,0.00,,,0.00,,2013-08-08 05:52:00,
2013-08-08 02:01:00,70.0,69.0,30.05,NNW,332,0.0,0.0,97,0.00,,,0.00,,2013-08-08 06:01:00,
2013-08-08 02:12:00,-999.0,-99.9,30.03,NNW,329,0.0,1.0,-999,0.00,,,0.00,,2013-08-08 06:12:00,
2013-08-08 02:22:00,-999.0,-99.9,30.03,NNW,329,0.0,1.0,-999,0.00,,,0.00,,2013-08-08 06:22:00,
2013-08-08 02:32:00,-999.0,-99.9,30.03,NNW,329,0.0,1.0,-999,0.00,,,0.00,,2013-08-08 06:32:00,
2013-08-08 02:43:00,-999.0,-99.9,30.03,NNW,329,0.0,1.0,-999,0.00,,,0.00,,2013-08-08 06:43:00,
2013-08-08 02:52:00,-999.0,-99.9,30.03,NNW,329,0.0,1.0,-999,0.00,,,0.00,,2013-08-08 06:52:00,
2013-08-08 03:02:00,-999.0,-99.9,30.03,NNW,329,0.0,1.0,-999,0.00,,,0.00,,2013-08-08 07:02:00,
2013-08-08 03:22:00,-999.0,-99.9,30.02,NW,315,0.0,2.0,-999,0.00,,,0.00,,2013-08-08 07:22:00,
2013-08-08 03:32:00,-999.0,-99.9,30.02,NW,315,0.0,2.0,-999,0.00,,,0.00,,2013-08-08 07:32:00,
2013-08-08 03:43:00,-999.0,-99.9,30.02,NW,315,0.0,2.0,-999,0.00,,,0.00,,2013-08-08 07:43:00,
2013-08-08 03:53:00,-999.0,-99.9,30.02,NW,315,0.0,2.0,-999,0.00,,,0.00,,2013-08-08 07:53:00,
2013-08-08 04:02:00,-999.0,-99.9,30.02,NW,315,0.0,2.0,-999,0.00,,,0.00,,2013-08-08 08:02:00,
2013-08-08 04:11:00,-999.0,-99.9,30.02,NW,315,0.0,0.0,-999,0.00,,,0.00,,2013-08-08 08:11:00,
2013-08-08 04:22:00,-999.0,-99.9,30.02,NW,315,0.0,0.0,-999,0.00,,,0.00,,2013-08-08 08:22:00,
2013-08-08 04:32:00,-999.0,-99.9,30.02,NW,315,0.0,0.0,-999,0.00,,,0.00,,2013-08-08 08:32:00,
2013-08-08 04:43:00,-999.0,-99.9,30.02,NW,315,0.0,0.0,-999,0.00,,,0.00,,2013-08-08 08:43:00,
2013-08-08 04:53:00,-999.0,-99.9,30.02,NW,315,0.0,0.0,-999,0.00,,,0.00,,2013-08-08 08:53:00,
2013-08-08 05:02:00,-999.0,-99.9,30.02,NW,315,0.0,0.0,-999,0.00,,,0.00,,2013-08-08 09:02:00,
2013-08-08 05:22:00,-999.0,-99.9,30.03,NW,315,0.0,0.0,-999,0.00,,,0.00,,2013-08-08 09:22:00,
2013-08-08 05:32:00,-999.0,-99.9,30.03,NW,315,0.0,0.0,-999,0.00,,,0.00,,2013-08-08 09:32:00,
2013-08-08 05:43:00,-999.0,-99.9,30.03,NW,315,0.0,0.0,-999,0.00,,,0.00,,2013-08-08 09:43:00,
2013-08-08 05:53:00,-999.0,-99.9,30.03,NW,315,0.0,0.0,-999,0.00,,,0.00,,2013-08-08 09:53:00,
2013-08-08 06:01:00,-999.0,-99.9,30.03,NW,315,0.0,0.0,-999,0.00,,,0.00,,2013-08-08 10:01:00,
2013-08-08 06:22:00,-999.0,-99.9,30.04,NW,315,0.0,0.0,-999,0.00,,,0.00,,2013-08-08 10:22:00,
2013-08-08 06:33:00,-999.0,-99.9,30.04,NW,315,0.0,0.0,-999,0.00,,,0.00,,2013-08-08 10:33:00,
2013-08-08 06:43:00,-999.0,-99.9,30.04,NW,315,0.0,0.0,-999,0.00,,,0.00,,2013-08-08 10:43:00,
2013-08-08 06:52:00,-999.0,-99.9,30.04,NW,315,0.0,0.0,-999,0.00,,,0.00,,2013-08-08 10:52:00,
2013-08-08 07:02:00,-999.0,-99.9,30.04,NW,315,0.0,0.0,-999,0.00,,,0.00,,2013-08-08 11:02:00,
2013-08-08 07:22:00,-999.0,-99.9,30.05,NW,315,0.0,1.0,-999,0.00,,,0.00,,2013-08-08 11:22:00,
2013-08-08 07:32:00,-999.0,-99.9,30.05,NW,315,0.0,1.0,-999,0.00,,,0.00,,2013-08-08 11:32:00,
2013-08-08 07:43:00,-999.0,-99.9,30.05,NW,315,0.0,1.0,-999,0.00,,,0.00,,2013-08-08 11:43:00,
2013-08-08 07:52:00,-999.0,-99.9,30.05,NW,315,0.0,1.0,-999,0.00,,,0.00,,2013-08-08 11:52:00,
2013-08-08 08:02:00,-999.0,-99.9,30.05,NW,315,0.0,1.0,-999,0.00,,,0.00,,2013-08-08 12:02:00,
2013-08-08 08:22:00,-999.0,-99.9,30.06,NW,315,0.0,1.0,-999,0.00,,,0.00,,2013-08-08 12:22:00,
2013-08-08 08:32:00,-999.0,-99.9,30.06,NW,315,0.0,1.0,-999,0.00,,,0.00,,2013-08-08 12:32:00,
2013-08-08 08:43:00,-999.0,-99.9,30.06,NW,315,0.0,1.0,-999,0.00,,,0.00,,2013-08-08 12:43:00,
2013-08-08 08:53:00,-999.0,-99.9,30.06,NW,315,0.0,1.0,-999,0.00,,,0.00,,2013-08-08 12:53:00,
2013-08-08 09:02:00,-999.0,-99.9,30.06,NW,315,0.0,1.0,-999,0.00,,,0.00,,2013-08-08 13:02:00,
2013-08-08 09:22:00,-999.0,-99.9,30.06,NW,315,0.0,1.0,-999,0.00,,,0.00,,2013-08-08 13:22:00,
2013-08-08 09:32:00,-999.0,-99.9,30.06,NW,315,0.0,1.0,-999,0.00,,,0.00,,2013-08-08 13:32:00,
2013-08-08 09:43:00,-999.0,-99.9,30.06,NW,315,0.0,1.0,-999,0.00,,,0.00,,2013-08-08 13:43:00,
2013-08-08 09:53:00,-999.0,-99.9,30.06,NW,315,0.0,1.0,-999,0.00,,,0.00,,2013-08-08 13:53:00,
2013-08-08 10:02:00,-999.0,-99.9,30.06,NW,315,0.0,1.0,-999,0.00,,,0.00,,2013-08-08 14:02:00,
2013-08-08 10:22:00,-999.0,-99.9,30.06,NNW,347,0.0,2.0,-999,0.00,,,0.00,,2013-08-08 14:22:00,
2013-08-08 10:32:00,-999.0,-99.9,30.06,NNW,347,0.0,2.0,-999,0.00,,,0.00,,2013-08-08 14:32:00,
2013-08-08 10:44:00,-999.0,-99.9,30.06,NNW,347,0.0,2.0,-999,0.00,,,0.00,,2013-08-08 14:44:00,
2013-08-08 10:53:00,-999.0,-99.9,30.06,NNW,347,0.0,2.0,-999,0.00,,,0.00,,2013-08-08 14:53:00,
2013-08-08 11:02:00,-999.0,-99.9,30.06,NNW,347,0.0,2.0,-999,0.00,,,0.00,,2013-08-08 15:02:00,
2013-08-08 11:22:00,-999.0,-99.9,30.05,WNW,289,0.0,2.0,-999,0.00,,,0.00,,2013-08-08 15:22:00,
2013-08-08 11:33:00,-999.0,-99.9,30.05,WNW,289,0.0,2.0,-999,0.00,,,0.00,,2013-08-08 15:33:00,
2013-08-08 11:43:00,-999.0,-99.9,30.05,WNW,289,0.0,2.0,-999,0.00,,,0.00,,2013-08-08 15:43:00,
2013-08-08 11:53:00,-999.0,-99.9,30.05,WNW,289,0.0,2.0,-999,0.00,,,0.00,,2013-08-08 15:53:00,
2013-08-08 12:02:00,-999.0,-99.9,30.05,WNW,289,0.0,2.0,-999,0.00,,,0.00,,2013-08-08 16:02:00,
2013-08-08 12:22:00,81.0,76.0,30.04,NW,313,0.0,1.0,85,0.00,,,0.00,,2013-08-08 16:22:00,
2013-08-08 12:32:00,81.0,76.0,30.04,NW,313,0.0,1.0,85,0.00,,,0.00,,2013-08-08 16:32:00,
2013-08-08 12:42:00,81.0,76.0,30.04,NW,313,0.0,1.0,85,0.00,,,0.00,,2013-08-08 16:42:00,
2013-08-08 12:52:00,81.0,76.0,30.04,NW,313,0.0,1.0,85,0.00,,,0.00,,2013-08-08 16:52:00,
2013-08-08 13:02:00,81.0,76.0,30.04,NW,313,0.0,1.0,85,0.00,,,0.00,,2013-08-08 17:02:00,
2013-08-08 13:22:00,82.0,77.0,30.03,ENE,74,0.0,1.0,85,0.00,,,0.00,,2013-08-08 17:22:00,
2013-08-08 13:32:00,82.0,77.0,30.03,ENE,74,0.0,1.0,85,0.00,,,0.00,,2013-08-08 17:32:00,
2013-08-08 13:43:00,82.0,77.0,30.03,ENE,74,0.0,1.0,85,0.00,,,0.00,,2013-08-08 17:43:00,
2013-08-08 13:52:00,82.0,77.0,30.03,ENE,74,0.0,1.0,85,0.00,,,0.00,,2013-08-08 17:52:00,
2013-08-08 14:02:00,82.0,77.0,30.03,ENE,74,0.0,1.0,85,0.00,,,0.00,,2013-08-08 18:02:00,
2013-08-08 14:32:00,83.0,76.0,30.03,WNW,290,0.0,1.0,80,0.00,,,0.00,,2013-08-08 18:32:00,
2013-08-08 14:43:00,83.0,76.0,30.03,WNW,290,0.0,1.0,80,0.00,,,0.00,,2013-08-08 18:43:00,
2013-08-08 14:53:00,83.0,76.0,30.03,WNW,290,0.0,1.0,80,0.00,,,0.00,,2013-08-08 18:53:00,
2013-08-08 15:01:00,83.0,76.0,30.03,WNW,290,0.0,1.0,80,0.00,,,0.00,,2013-08-08 19:01:00,
2013-08-08 15:22:00,83.0,76.0,30.02,West,269,0.0,4.0,80,0.00,,,0.00,,2013-08-08 19:22:00,
2013-08-08 15:32:00,83.0,76.0,30.02,West,269,0.0,4.0,80,0.00,,,0.00,,2013-08-08 19:32:00,
2013-08-08 15:43:00,83.0,76.0,30.02,West,269,0.0,4.0,80,0.00,,,0.00,,2013-08-08 19:43:00,
2013-08-08 15:59:00,83.0,76.0,30.02,West,269,0.0,4.0,80,0.00,,,0.00,,2013-08-08 19:59:00,
2013-08-08 16:22:00,83.0,76.0,30.01,South,171,0.0,7.0,79,0.00,,,0.00,,2013-08-08 20:22:00,
2013-08-08 16:32:00,83.0,76.0,30.01,South,171,0.0,7.0,79,0.00,,,0.00,,2013-08-08 20:32:00,
2013-08-08 16:42:00,83.0,76.0,30.01,South,171,0.0,7.0,79,0.00,,,0.00,,2013-08-08 20:42:00,
2013-08-08 16:53:00,83.0,76.0,30.01,South,171,0.0,7.0,79,0.00,,,0.00,,2013-08-08 20:53:00,
2013-08-08 17:01:00,83.0,76.0,30.01,South,171,0.0,7.0,79,0.00,,,0.00,,2013-08-08 21:01:00,
2013-08-08 17:03:00,80.0,75.0,29.99,West,265,0.0,4.0,85,0.00,,,0.00,,2013-08-08 21:03:00,
2013-08-08 17:34:00,80.0,75.0,29.99,West,265,0.0,4.0,85,0.00,,,0.00,,2013-08-08 21:34:00,
2013-08-08 17:46:00,80.0,75.0,29.99,West,265,0.0,4.0,85,0.00,,,0.00,,2013-08-08 21:46:00,
2013-08-08 17:57:00,80.0,75.0,29.99,West,265,0.0,4.0,85,0.00,,,0.00,,2013-08-08 21:57:00,
2013-08-08 18:03:00,75.0,73.0,30.00,SSW,213,0.0,0.0,93,0.00,,,0.00,,2013-08-08 22:03:00,
2013-08-08 18:26:00,75.0,73.0,30.00,SSW,213,0.0,0.0,93,0.00,,,0.00,,2013-08-08 22:26:00,
2013-08-08 18:37:00,75.0,73.0,30.00,SSW,213,0.0,0.0,93,0.00,,,0.00,,2013-08-08 22:37:00,
2013-08-08 18:49:00,75.0,73.0,30.00,SSW,213,0.0,0.0,93,0.00,,,0.00,,2013-08-08 22:49:00,
2013-08-08 18:58:00,75.0,73.0,30.00,SSW,213,0.0,0.0,93,0.00,,,0.00,,2013-08-08 22:58:00,
2013-08-08 20:03:00,74.0,72.0,30.01,SW,233,0.0,0.0,95,0.00,,,0.00,,2013-08-09 00:03:00,
2013-08-08 20:26:00,74.0,72.0,30.01,SW,233,0.0,0.0,95,0.00,,,0.00,,2013-08-09 00:26:00,
2013-08-08 20:48:00,74.0,72.0,30.01,SW,233,0.0,0.0,95,0.00,,,0.00,,2013-08-09 00:48:00,
2013-08-08 20:57:00,74.0,72.0,30.01,SW,233,0.0,0.0,95,0.00,,,0.00,,2013-08-09 00:57:00,
2013-08-08 21:03:00,72.0,70.0,30.02,ENE,59,0.0,4.0,95,0.00,,,0.00,,2013-08-09 01:03:00,
2013-08-08 21:27:00,72.0,70.0,30.02,ENE,59,0.0,4.0,95,0.00,,,0.00,,2013-08-09 01:27:00,
2013-08-08 22:00:00,72.0,70.0,30.02,ENE,59,0.0,4.0,95,0.00,,,0.00,,2013-08-09 02:00:00,
2013-08-08 22:03:00,71.0,70.0,30.03,NNE,29,0.0,0.0,96,0.00,,,0.00,,2013-08-09 02:03:00,
2013-08-08 22:39:00,71.0,70.0,30.03,NNE,29,0.0,0.0,96,0.00,,,0.00,,2013-08-09 02:39:00,
2013-08-08 22:47:00,71.0,70.0,30.03,NNE,29,0.0,0.0,96,0.00,,,0.00,,2013-08-09 02:47:00,
2013-08-08 22:57:00,71.0,70.0,30.03,NNE,29,0.0,0.0,96,0.00,,,0.00,,2013-08-09 02:57:00,
2013-08-08 23:26:00,72.0,71.0,30.02,NNE,26,0.0,1.0,96,0.00,,,0.00,,2013-08-09 03:26:00,
2013-08-08 23:36:00,72.0,71.0,30.02,NNE,26,0.0,1.0,96,0.00,,,0.00,,2013-08-09 03:36:00,
2013-08-08 23:47:00,72.0,71.0,30.02,NNE,26,0.0,1.0,96,0.00,,,0.00,,2013-08-09 03:47:00,
2013-08-08 23:56:00,72.0,71.0,30.02,NNE,26,0.0,1.0,96,0.00,,,0.00,,2013-08-09 03:56:00,